owner,sensor,date,latitude,longitude,vertical_datum,mass_concentration_of_oxygen_in_sea_water,qcFlag 
DISL,ioos:station:DISL:KATA:1,2019-09-01T00:30:00Z,30.2583,-88.2131,4.087,5.13,11111222 
DISL,ioos:station:DISL:KATA:1,2019-09-01T01:30:00Z,30.2583,-88.2131,4.097,5.64,11111222 
DISL,ioos:station:DISL:KATA:1,2019-09-01T02:30:00Z,30.2583,-88.2131,4.116,4.6,11111222 
DISL,ioos:station:DISL:KATA:1,2019-09-01T03:30:00Z,30.2583,-88.2131,4.112,4.05,11111222 
DISL,ioos:station:DISL:KATA:1,2019-09-01T04:30:00Z,30.2583,-88.2131,4.125,3.55,11111222 
DISL,ioos:station:DISL:KATA:1,2019-09-01T05:30:00Z,30.2583,-88.2131,4.155,3.29,11111222 
DISL,ioos:station:DISL:KATA:1,2019-09-01T06:30:00Z,30.2583,-88.2131,4.208,3.67,11111222 
DISL,ioos:station:DISL:KATA:1,2019-09-01T07:30:00Z,30.2583,-88.2131,4.198,3.93,11111222 
DISL,ioos:station:DISL:KATA:1,2019-09-01T08:30:00Z,30.2583,-88.2131,4.202,4.43,11111222 
DISL,ioos:station:DISL:KATA:1,2019-09-01T09:30:00Z,30.2583,-88.2131,4.201,3.9,11111222 
DISL,ioos:station:DISL:KATA:1,2019-09-01T10:30:00Z,30.2583,-88.2131,4.193,3.72,11111222 
DISL,ioos:station:DISL:KATA:1,2019-09-01T11:30:00Z,30.2583,-88.2131,4.211,3.9,11111222 
DISL,ioos:station:DISL:KATA:1,2019-09-01T12:30:00Z,30.2583,-88.2131,4.232,3.89,11111222 
DISL,ioos:station:DISL:KATA:1,2019-09-01T13:30:00Z,30.2583,-88.2131,4.245,3.97,11111222 
DISL,ioos:station:DISL:KATA:1,2019-09-01T14:30:00Z,30.2583,-88.2131,4.306,3.49,11111222 
DISL,ioos:station:DISL:KATA:1,2019-09-01T15:30:00Z,30.2583,-88.2131,4.377,3.66,11111222 
DISL,ioos:station:DISL:KATA:1,2019-09-01T16:30:00Z,30.2583,-88.2131,4.417,3.71,11111222 
DISL,ioos:station:DISL:KATA:1,2019-09-01T17:30:00Z,30.2583,-88.2131,4.427,3.75,11111222 
DISL,ioos:station:DISL:KATA:1,2019-09-01T18:30:00Z,30.2583,-88.2131,4.422,4.01,11111222 
DISL,ioos:station:DISL:KATA:1,2019-09-01T19:30:00Z,30.2583,-88.2131,4.435,4.03,11111222 
DISL,ioos:station:DISL:KATA:1,2019-09-01T20:30:00Z,30.2583,-88.2131,4.434,3.75,11111222 
DISL,ioos:station:DISL:KATA:1,2019-09-01T21:30:00Z,30.2583,-88.2131,4.395,3.9,11111222 
DISL,ioos:station:DISL:KATA:1,2019-09-01T22:30:00Z,30.2583,-88.2131,4.319,4.38,11111222 
DISL,ioos:station:DISL:KATA:1,2019-09-01T23:30:00Z,30.2583,-88.2131,4.247,4.41,11111222 
DISL,ioos:station:DISL:KATA:1,2019-09-02T00:30:00Z,30.2583,-88.2131,4.199,4.32,11111222 
DISL,ioos:station:DISL:KATA:1,2019-09-02T01:30:00Z,30.2583,-88.2131,4.179,2.63,11111222 
DISL,ioos:station:DISL:KATA:1,2019-09-02T02:30:00Z,30.2583,-88.2131,4.189,2.92,11111222 
DISL,ioos:station:DISL:KATA:1,2019-09-02T03:30:00Z,30.2583,-88.2131,4.21,3.42,11111222 
DISL,ioos:station:DISL:KATA:1,2019-09-02T04:30:00Z,30.2583,-88.2131,4.221,3.64,11111222 
DISL,ioos:station:DISL:KATA:1,2019-09-02T05:30:00Z,30.2583,-88.2131,4.237,3.68,11111222 
DISL,ioos:station:DISL:KATA:1,2019-09-02T06:30:00Z,30.2583,-88.2131,4.257,3.38,11111222 
DISL,ioos:station:DISL:KATA:1,2019-09-02T07:30:00Z,30.2583,-88.2131,4.264,2.87,11111222 
DISL,ioos:station:DISL:KATA:1,2019-09-02T08:30:00Z,30.2583,-88.2131,4.262,2.95,11111222 
DISL,ioos:station:DISL:KATA:1,2019-09-02T09:30:00Z,30.2583,-88.2131,4.251,2.87,11111222 
DISL,ioos:station:DISL:KATA:1,2019-09-02T10:30:00Z,30.2583,-88.2131,4.207,2.62,11111222 
DISL,ioos:station:DISL:KATA:1,2019-09-02T11:30:00Z,30.2583,-88.2131,4.144,2.44,11111222 
DISL,ioos:station:DISL:KATA:1,2019-09-02T12:30:00Z,30.2583,-88.2131,4.134,2.51,11111222 
DISL,ioos:station:DISL:KATA:1,2019-09-02T15:30:00Z,30.2583,-88.2131,4.203,2.54,11111222 
DISL,ioos:station:DISL:KATA:1,2019-09-02T16:30:00Z,30.2583,-88.2131,4.25,2.67,11111222 
DISL,ioos:station:DISL:KATA:1,2019-09-02T17:30:00Z,30.2583,-88.2131,4.282,2.74,11111222 
DISL,ioos:station:DISL:KATA:1,2019-09-02T18:30:00Z,30.2583,-88.2131,4.3,3.03,11111222 
DISL,ioos:station:DISL:KATA:1,2019-09-02T19:30:00Z,30.2583,-88.2131,4.308,3.33,11111222 
DISL,ioos:station:DISL:KATA:1,2019-09-02T20:30:00Z,30.2583,-88.2131,4.318,3.66,11111222 
DISL,ioos:station:DISL:KATA:1,2019-09-02T21:30:00Z,30.2583,-88.2131,4.31,3.45,11111222 
DISL,ioos:station:DISL:KATA:1,2019-09-02T22:30:00Z,30.2583,-88.2131,4.279,3.22,11111222 
DISL,ioos:station:DISL:KATA:1,2019-09-02T23:30:00Z,30.2583,-88.2131,4.26,2.54,11111222 
DISL,ioos:station:DISL:KATA:1,2019-09-03T00:30:00Z,30.2583,-88.2131,4.238,3.33,11111222 
DISL,ioos:station:DISL:KATA:1,2019-09-03T01:30:00Z,30.2583,-88.2131,4.222,3.1,11111222 
DISL,ioos:station:DISL:KATA:1,2019-09-03T02:30:00Z,30.2583,-88.2131,4.241,2.72,11111222 
DISL,ioos:station:DISL:KATA:1,2019-09-03T03:30:00Z,30.2583,-88.2131,4.258,3.13,11111222 
DISL,ioos:station:DISL:KATA:1,2019-09-03T04:30:00Z,30.2583,-88.2131,4.289,2.96,11111222 
DISL,ioos:station:DISL:KATA:1,2019-09-03T05:30:00Z,30.2583,-88.2131,4.295,2.58,11111222 
DISL,ioos:station:DISL:KATA:1,2019-09-03T06:30:00Z,30.2583,-88.2131,4.302,2.74,11111222 
DISL,ioos:station:DISL:KATA:1,2019-09-03T07:30:00Z,30.2583,-88.2131,4.308,2.76,11111222 
DISL,ioos:station:DISL:KATA:1,2019-09-03T08:30:00Z,30.2583,-88.2131,4.298,2.55,11111222 
DISL,ioos:station:DISL:KATA:1,2019-09-03T09:30:00Z,30.2583,-88.2131,4.282,1.87,11111222 
DISL,ioos:station:DISL:KATA:1,2019-09-03T10:30:00Z,30.2583,-88.2131,4.227,2.31,11111222 
DISL,ioos:station:DISL:KATA:1,2019-09-03T11:30:00Z,30.2583,-88.2131,4.168,1.31,11111222 
DISL,ioos:station:DISL:KATA:1,2019-09-03T12:30:00Z,30.2583,-88.2131,4.131,1.74,11111222 
DISL,ioos:station:DISL:KATA:1,2019-09-03T13:30:00Z,30.2583,-88.2131,4.089,2.05,11111222 
DISL,ioos:station:DISL:KATA:1,2019-09-03T14:30:00Z,30.2583,-88.2131,4.072,2.01,11111222 
DISL,ioos:station:DISL:KATA:1,2019-09-03T15:30:00Z,30.2583,-88.2131,4.073,2.37,11111222 
DISL,ioos:station:DISL:KATA:1,2019-09-03T16:30:00Z,30.2583,-88.2131,4.111,2.56,11111222 
DISL,ioos:station:DISL:KATA:1,2019-09-03T17:30:00Z,30.2583,-88.2131,4.142,2.58,11111222 
DISL,ioos:station:DISL:KATA:1,2019-09-03T18:30:00Z,30.2583,-88.2131,4.145,3.43,11111222 
DISL,ioos:station:DISL:KATA:1,2019-09-03T19:30:00Z,30.2583,-88.2131,4.16,4.12,11111222 
DISL,ioos:station:DISL:KATA:1,2019-09-03T20:30:00Z,30.2583,-88.2131,4.188,4.23,11111222 
DISL,ioos:station:DISL:KATA:1,2019-09-03T21:30:00Z,30.2583,-88.2131,4.201,4.7,11111222 
DISL,ioos:station:DISL:KATA:1,2019-09-03T22:30:00Z,30.2583,-88.2131,4.217,5.38,11111222 
DISL,ioos:station:DISL:KATA:1,2019-09-03T23:30:00Z,30.2583,-88.2131,4.234,5.12,11111222 
DISL,ioos:station:DISL:KATA:1,2019-09-04T00:30:00Z,30.2583,-88.2131,4.255,5.13,11111222 
DISL,ioos:station:DISL:KATA:1,2019-09-04T01:30:00Z,30.2583,-88.2131,4.261,4.16,11111222 
DISL,ioos:station:DISL:KATA:1,2019-09-04T02:30:00Z,30.2583,-88.2131,4.248,4.08,11111222 
DISL,ioos:station:DISL:KATA:1,2019-09-04T03:30:00Z,30.2583,-88.2131,4.283,3.98,11111222 
DISL,ioos:station:DISL:KATA:1,2019-09-04T04:30:00Z,30.2583,-88.2131,4.33,3.93,11111222 
DISL,ioos:station:DISL:KATA:1,2019-09-04T05:30:00Z,30.2583,-88.2131,4.345,3.94,11111222 
DISL,ioos:station:DISL:KATA:1,2019-09-04T06:30:00Z,30.2583,-88.2131,4.334,3.97,11111222 
DISL,ioos:station:DISL:KATA:1,2019-09-04T07:30:00Z,30.2583,-88.2131,4.325,3.74,11111222 
DISL,ioos:station:DISL:KATA:1,2019-09-04T08:30:00Z,30.2583,-88.2131,4.296,3.61,11111222 
DISL,ioos:station:DISL:KATA:1,2019-09-04T09:30:00Z,30.2583,-88.2131,4.274,1.94,11111222 
DISL,ioos:station:DISL:KATA:1,2019-09-04T10:30:00Z,30.2583,-88.2131,4.23,1.66,11111222 
DISL,ioos:station:DISL:KATA:1,2019-09-04T11:30:00Z,30.2583,-88.2131,4.175,2.6,11111222 
DISL,ioos:station:DISL:KATA:1,2019-09-04T12:30:00Z,30.2583,-88.2131,4.118,2.97,11111222 
DISL,ioos:station:DISL:KATA:1,2019-09-04T13:30:00Z,30.2583,-88.2131,4.055,2.12,11111222 
DISL,ioos:station:DISL:KATA:1,2019-09-04T14:30:00Z,30.2583,-88.2131,4.005,2.63,11111222 
DISL,ioos:station:DISL:KATA:1,2019-09-04T15:30:00Z,30.2583,-88.2131,3.979,2.62,11111222 
DISL,ioos:station:DISL:KATA:1,2019-09-04T16:30:00Z,30.2583,-88.2131,3.962,2.7,11111222 
DISL,ioos:station:DISL:KATA:1,2019-09-04T17:30:00Z,30.2583,-88.2131,3.984,2.76,11111222 
DISL,ioos:station:DISL:KATA:1,2019-09-04T18:30:00Z,30.2583,-88.2131,4.012,2.89,11111222 
DISL,ioos:station:DISL:KATA:1,2019-09-04T19:30:00Z,30.2583,-88.2131,3.998,3.15,11111222 
DISL,ioos:station:DISL:KATA:1,2019-09-04T20:30:00Z,30.2583,-88.2131,3.998,3.19,11111222 
DISL,ioos:station:DISL:KATA:1,2019-09-04T21:30:00Z,30.2583,-88.2131,4.011,3.16,11111222 
DISL,ioos:station:DISL:KATA:1,2019-09-04T22:30:00Z,30.2583,-88.2131,4.041,3.22,11111222 
DISL,ioos:station:DISL:KATA:1,2019-09-04T23:30:00Z,30.2583,-88.2131,4.09,3.55,11111222 
DISL,ioos:station:DISL:KATA:1,2019-09-05T00:30:00Z,30.2583,-88.2131,4.13,3.14,11111222 
DISL,ioos:station:DISL:KATA:1,2019-09-05T01:30:00Z,30.2583,-88.2131,4.158,2.84,11111222 
DISL,ioos:station:DISL:KATA:1,2019-09-05T02:30:00Z,30.2583,-88.2131,4.165,2.56,11111222 
DISL,ioos:station:DISL:KATA:1,2019-09-05T03:30:00Z,30.2583,-88.2131,4.203,1.87,11111222 
DISL,ioos:station:DISL:KATA:1,2019-09-05T04:30:00Z,30.2583,-88.2131,4.261,3.21,11111222 
DISL,ioos:station:DISL:KATA:1,2019-09-05T05:30:00Z,30.2583,-88.2131,4.319,2.94,11111222 
DISL,ioos:station:DISL:KATA:1,2019-09-05T06:30:00Z,30.2583,-88.2131,4.329,2.9,11111222 
DISL,ioos:station:DISL:KATA:1,2019-09-05T07:30:00Z,30.2583,-88.2131,4.318,2.89,11111222 
DISL,ioos:station:DISL:KATA:1,2019-09-05T08:30:00Z,30.2583,-88.2131,4.275,3.1,11111222 
DISL,ioos:station:DISL:KATA:1,2019-09-05T09:30:00Z,30.2583,-88.2131,4.235,2.71,11111222 
DISL,ioos:station:DISL:KATA:1,2019-09-05T10:30:00Z,30.2583,-88.2131,4.217,2.32,11111222 
DISL,ioos:station:DISL:KATA:1,2019-09-05T11:30:00Z,30.2583,-88.2131,4.173,2.29,11111222 
DISL,ioos:station:DISL:KATA:1,2019-09-05T12:30:00Z,30.2583,-88.2131,4.135,2.28,11111222 
DISL,ioos:station:DISL:KATA:1,2019-09-05T13:30:00Z,30.2583,-88.2131,4.068,2.35,11111222 
DISL,ioos:station:DISL:KATA:1,2019-09-05T14:30:00Z,30.2583,-88.2131,4.0,1.82,11111222 
DISL,ioos:station:DISL:KATA:1,2019-09-05T15:30:00Z,30.2583,-88.2131,3.958,1.7,11111222 
DISL,ioos:station:DISL:KATA:1,2019-09-05T16:30:00Z,30.2583,-88.2131,3.923,2.9,11111222 
DISL,ioos:station:DISL:KATA:1,2019-09-05T17:30:00Z,30.2583,-88.2131,3.901,0.79,11111222 
DISL,ioos:station:DISL:KATA:1,2019-09-05T18:30:00Z,30.2583,-88.2131,3.907,1.28,11111222 
DISL,ioos:station:DISL:KATA:1,2019-09-05T19:30:00Z,30.2583,-88.2131,3.917,3.96,11111222 
DISL,ioos:station:DISL:KATA:1,2019-09-05T20:30:00Z,30.2583,-88.2131,3.909,3.53,11111222 
DISL,ioos:station:DISL:KATA:1,2019-09-05T21:30:00Z,30.2583,-88.2131,3.925,2.89,11111222 
DISL,ioos:station:DISL:KATA:1,2019-09-05T22:30:00Z,30.2583,-88.2131,3.95,3.23,11111222 
DISL,ioos:station:DISL:KATA:1,2019-09-05T23:30:00Z,30.2583,-88.2131,4.006,3.19,11111222 
DISL,ioos:station:DISL:KATA:1,2019-09-06T00:30:00Z,30.2583,-88.2131,4.013,2.39,11111222 
DISL,ioos:station:DISL:KATA:1,2019-09-06T01:30:00Z,30.2583,-88.2131,4.052,2.51,11111222 
DISL,ioos:station:DISL:KATA:1,2019-09-06T02:30:00Z,30.2583,-88.2131,4.061,2.37,11111222 
DISL,ioos:station:DISL:KATA:1,2019-09-06T03:30:00Z,30.2583,-88.2131,4.108,1.95,11111222 
DISL,ioos:station:DISL:KATA:1,2019-09-06T04:30:00Z,30.2583,-88.2131,4.153,1.76,11111222 
DISL,ioos:station:DISL:KATA:1,2019-09-06T07:30:00Z,30.2583,-88.2131,4.287,2.9,11111222 
DISL,ioos:station:DISL:KATA:1,2019-09-06T08:30:00Z,30.2583,-88.2131,4.262,2.39,11111222 
DISL,ioos:station:DISL:KATA:1,2019-09-06T09:30:00Z,30.2583,-88.2131,4.223,1.68,11111222 
DISL,ioos:station:DISL:KATA:1,2019-09-06T10:30:00Z,30.2583,-88.2131,4.156,1.71,11111222 
DISL,ioos:station:DISL:KATA:1,2019-09-06T11:30:00Z,30.2583,-88.2131,4.119,1.98,11111222 
DISL,ioos:station:DISL:KATA:1,2019-09-06T12:30:00Z,30.2583,-88.2131,4.097,2.07,11111222 
DISL,ioos:station:DISL:KATA:1,2019-09-06T13:30:00Z,30.2583,-88.2131,4.063,1.64,11111222 
DISL,ioos:station:DISL:KATA:1,2019-09-06T14:30:00Z,30.2583,-88.2131,4.022,3.03,11111222 
DISL,ioos:station:DISL:KATA:1,2019-09-06T15:30:00Z,30.2583,-88.2131,3.976,5.37,11111222 
DISL,ioos:station:DISL:KATA:1,2019-09-06T16:30:00Z,30.2583,-88.2131,3.929,5.75,11111222 
DISL,ioos:station:DISL:KATA:1,2019-09-06T17:30:00Z,30.2583,-88.2131,3.893,6.34,11111222 
DISL,ioos:station:DISL:KATA:1,2019-09-06T18:30:00Z,30.2583,-88.2131,3.866,6.75,11111222 
DISL,ioos:station:DISL:KATA:1,2019-09-06T19:30:00Z,30.2583,-88.2131,3.864,7.08,11111222 
DISL,ioos:station:DISL:KATA:1,2019-09-06T20:30:00Z,30.2583,-88.2131,3.848,7.26,11111222 
DISL,ioos:station:DISL:KATA:1,2019-09-06T21:30:00Z,30.2583,-88.2131,3.854,7.47,11111222 
DISL,ioos:station:DISL:KATA:1,2019-09-06T22:30:00Z,30.2583,-88.2131,3.872,7.35,11111222 
DISL,ioos:station:DISL:KATA:1,2019-09-06T23:30:00Z,30.2583,-88.2131,3.909,6.87,11111222 
DISL,ioos:station:DISL:KATA:1,2019-09-07T00:30:00Z,30.2583,-88.2131,3.965,5.0,11111222 
DISL,ioos:station:DISL:KATA:1,2019-09-07T01:30:00Z,30.2583,-88.2131,4.021,5.52,11111222 
DISL,ioos:station:DISL:KATA:1,2019-09-07T02:30:00Z,30.2583,-88.2131,4.082,5.61,11111222 
DISL,ioos:station:DISL:KATA:1,2019-09-07T03:30:00Z,30.2583,-88.2131,4.159,4.92,11111222 
DISL,ioos:station:DISL:KATA:1,2019-09-07T04:30:00Z,30.2583,-88.2131,4.234,5.03,11111222 
DISL,ioos:station:DISL:KATA:1,2019-09-07T05:30:00Z,30.2583,-88.2131,4.284,4.68,11111222 
DISL,ioos:station:DISL:KATA:1,2019-09-07T06:30:00Z,30.2583,-88.2131,4.318,4.64,11111222 
DISL,ioos:station:DISL:KATA:1,2019-09-07T07:30:00Z,30.2583,-88.2131,4.321,5.08,11111222 
DISL,ioos:station:DISL:KATA:1,2019-09-07T08:30:00Z,30.2583,-88.2131,4.351,5.47,11111222 
DISL,ioos:station:DISL:KATA:1,2019-09-07T09:30:00Z,30.2583,-88.2131,4.347,4.59,11111222 
DISL,ioos:station:DISL:KATA:1,2019-09-07T10:30:00Z,30.2583,-88.2131,4.307,4.32,11111222 
DISL,ioos:station:DISL:KATA:1,2019-09-07T11:30:00Z,30.2583,-88.2131,4.26,3.56,11111222 
DISL,ioos:station:DISL:KATA:1,2019-09-07T12:30:00Z,30.2583,-88.2131,4.25,3.26,11111222 
DISL,ioos:station:DISL:KATA:1,2019-09-07T13:30:00Z,30.2583,-88.2131,4.259,3.81,11111222 
DISL,ioos:station:DISL:KATA:1,2019-09-07T14:30:00Z,30.2583,-88.2131,4.195,4.53,11111222 
DISL,ioos:station:DISL:KATA:1,2019-09-07T15:30:00Z,30.2583,-88.2131,4.104,4.82,11111222 
DISL,ioos:station:DISL:KATA:1,2019-09-07T16:30:00Z,30.2583,-88.2131,4.028,5.16,11111222 
DISL,ioos:station:DISL:KATA:1,2019-09-07T17:30:00Z,30.2583,-88.2131,3.953,5.69,11111222 
DISL,ioos:station:DISL:KATA:1,2019-09-07T18:30:00Z,30.2583,-88.2131,3.903,6.58,11111222 
DISL,ioos:station:DISL:KATA:1,2019-09-07T19:30:00Z,30.2583,-88.2131,3.873,6.76,11111222 
DISL,ioos:station:DISL:KATA:1,2019-09-07T20:30:00Z,30.2583,-88.2131,3.874,6.24,11111222 
DISL,ioos:station:DISL:KATA:1,2019-09-07T21:30:00Z,30.2583,-88.2131,3.865,6.78,11111222 
DISL,ioos:station:DISL:KATA:1,2019-09-07T22:30:00Z,30.2583,-88.2131,3.856,6.11,11111222 
DISL,ioos:station:DISL:KATA:1,2019-09-07T23:30:00Z,30.2583,-88.2131,3.877,5.67,11111222 
DISL,ioos:station:DISL:KATA:1,2019-09-08T00:30:00Z,30.2583,-88.2131,3.938,5.92,11111222 
DISL,ioos:station:DISL:KATA:1,2019-09-08T01:30:00Z,30.2583,-88.2131,4.014,5.47,11111222 
DISL,ioos:station:DISL:KATA:1,2019-09-08T02:30:00Z,30.2583,-88.2131,4.087,5.27,11111222 
DISL,ioos:station:DISL:KATA:1,2019-09-08T03:30:00Z,30.2583,-88.2131,4.134,5.37,11111222 
DISL,ioos:station:DISL:KATA:1,2019-09-08T04:30:00Z,30.2583,-88.2131,4.222,4.9,11111222 
DISL,ioos:station:DISL:KATA:1,2019-09-08T05:30:00Z,30.2583,-88.2131,4.259,5.5,11111222 
DISL,ioos:station:DISL:KATA:1,2019-09-08T06:30:00Z,30.2583,-88.2131,4.29,5.48,11111222 
DISL,ioos:station:DISL:KATA:1,2019-09-08T07:30:00Z,30.2583,-88.2131,4.322,5.26,11111222 
DISL,ioos:station:DISL:KATA:1,2019-09-08T08:30:00Z,30.2583,-88.2131,4.366,5.26,11111222 
DISL,ioos:station:DISL:KATA:1,2019-09-08T09:30:00Z,30.2583,-88.2131,4.401,4.63,11111222 
DISL,ioos:station:DISL:KATA:1,2019-09-08T10:30:00Z,30.2583,-88.2131,4.388,4.22,11111222 
DISL,ioos:station:DISL:KATA:1,2019-09-08T11:30:00Z,30.2583,-88.2131,4.372,3.53,11111222 
DISL,ioos:station:DISL:KATA:1,2019-09-08T12:30:00Z,30.2583,-88.2131,4.35,2.67,11111222 
DISL,ioos:station:DISL:KATA:1,2019-09-08T13:30:00Z,30.2583,-88.2131,4.325,3.65,11111222 
DISL,ioos:station:DISL:KATA:1,2019-09-08T14:30:00Z,30.2583,-88.2131,4.28,4.63,11111222 
DISL,ioos:station:DISL:KATA:1,2019-09-08T15:30:00Z,30.2583,-88.2131,4.235,4.43,11111222 
DISL,ioos:station:DISL:KATA:1,2019-09-08T16:30:00Z,30.2583,-88.2131,4.157,4.8,11111222 
DISL,ioos:station:DISL:KATA:1,2019-09-08T17:30:00Z,30.2583,-88.2131,4.078,5.22,11111222 
DISL,ioos:station:DISL:KATA:1,2019-09-08T18:30:00Z,30.2583,-88.2131,4.012,5.32,11111222 
DISL,ioos:station:DISL:KATA:1,2019-09-08T19:30:00Z,30.2583,-88.2131,3.957,5.48,11111222 
DISL,ioos:station:DISL:KATA:1,2019-09-08T20:30:00Z,30.2583,-88.2131,3.93,5.42,11111222 
DISL,ioos:station:DISL:KATA:1,2019-09-08T21:30:00Z,30.2583,-88.2131,3.923,5.85,11111222 
DISL,ioos:station:DISL:KATA:1,2019-09-08T22:30:00Z,30.2583,-88.2131,3.941,4.95,11111222 
DISL,ioos:station:DISL:KATA:1,2019-09-08T23:30:00Z,30.2583,-88.2131,3.964,4.66,11111222 
DISL,ioos:station:DISL:KATA:1,2019-09-09T00:30:00Z,30.2583,-88.2131,4.0,5.11,11111222 
DISL,ioos:station:DISL:KATA:1,2019-09-09T01:30:00Z,30.2583,-88.2131,4.039,5.24,11111222 
DISL,ioos:station:DISL:KATA:1,2019-09-09T02:30:00Z,30.2583,-88.2131,4.086,5.46,11111222 
DISL,ioos:station:DISL:KATA:1,2019-09-09T03:30:00Z,30.2583,-88.2131,4.14,6.27,11111222 
DISL,ioos:station:DISL:KATA:1,2019-09-09T04:30:00Z,30.2583,-88.2131,4.197,6.21,11111222 
DISL,ioos:station:DISL:KATA:1,2019-09-09T05:30:00Z,30.2583,-88.2131,4.243,5.86,11111222 
DISL,ioos:station:DISL:KATA:1,2019-09-09T06:30:00Z,30.2583,-88.2131,4.275,4.99,11111222 
DISL,ioos:station:DISL:KATA:1,2019-09-09T07:30:00Z,30.2583,-88.2131,4.286,5.02,11111222 
DISL,ioos:station:DISL:KATA:1,2019-09-09T08:30:00Z,30.2583,-88.2131,4.313,4.84,11111222 
DISL,ioos:station:DISL:KATA:1,2019-09-09T09:30:00Z,30.2583,-88.2131,4.363,5.17,11111222 
DISL,ioos:station:DISL:KATA:1,2019-09-09T10:30:00Z,30.2583,-88.2131,4.406,4.94,11111222 
DISL,ioos:station:DISL:KATA:1,2019-09-09T11:30:00Z,30.2583,-88.2131,4.416,4.77,11111222 
DISL,ioos:station:DISL:KATA:1,2019-09-09T12:30:00Z,30.2583,-88.2131,4.392,4.92,11111222 
DISL,ioos:station:DISL:KATA:1,2019-09-09T13:30:00Z,30.2583,-88.2131,4.364,4.74,11111222 
DISL,ioos:station:DISL:KATA:1,2019-09-09T14:30:00Z,30.2583,-88.2131,4.335,3.97,11111222 
DISL,ioos:station:DISL:KATA:1,2019-09-09T15:30:00Z,30.2583,-88.2131,4.297,4.95,11111222 
DISL,ioos:station:DISL:KATA:1,2019-09-09T16:30:00Z,30.2583,-88.2131,4.231,4.99,11111222 
DISL,ioos:station:DISL:KATA:1,2019-09-09T17:30:00Z,30.2583,-88.2131,4.155,5.16,11111222 
DISL,ioos:station:DISL:KATA:1,2019-09-09T18:30:00Z,30.2583,-88.2131,4.083,5.7,11111222 
DISL,ioos:station:DISL:KATA:1,2019-09-09T22:30:00Z,30.2583,-88.2131,3.951,7.51,11111222 
DISL,ioos:station:DISL:KATA:1,2019-09-09T23:30:00Z,30.2583,-88.2131,4.004,5.75,11111222 
DISL,ioos:station:DISL:KATA:1,2019-09-10T00:30:00Z,30.2583,-88.2131,4.038,5.33,11111222 
DISL,ioos:station:DISL:KATA:1,2019-09-10T01:30:00Z,30.2583,-88.2131,4.057,6.32,11111222 
DISL,ioos:station:DISL:KATA:1,2019-09-10T02:30:00Z,30.2583,-88.2131,4.087,6.81,11111222 
DISL,ioos:station:DISL:KATA:1,2019-09-10T03:30:00Z,30.2583,-88.2131,4.133,6.02,11111222 
DISL,ioos:station:DISL:KATA:1,2019-09-10T04:30:00Z,30.2583,-88.2131,4.18,5.9,11111222 
DISL,ioos:station:DISL:KATA:1,2019-09-10T05:30:00Z,30.2583,-88.2131,4.228,5.87,11111222 
DISL,ioos:station:DISL:KATA:1,2019-09-10T06:30:00Z,30.2583,-88.2131,4.272,5.84,11111222 
DISL,ioos:station:DISL:KATA:1,2019-09-10T07:30:00Z,30.2583,-88.2131,4.312,5.63,11111222 
DISL,ioos:station:DISL:KATA:1,2019-09-10T08:30:00Z,30.2583,-88.2131,4.35,5.42,11111222 
DISL,ioos:station:DISL:KATA:1,2019-09-10T09:30:00Z,30.2583,-88.2131,4.384,5.41,11111222 
DISL,ioos:station:DISL:KATA:1,2019-09-10T10:30:00Z,30.2583,-88.2131,4.401,5.26,11111222 
DISL,ioos:station:DISL:KATA:1,2019-09-10T11:30:00Z,30.2583,-88.2131,4.446,4.67,11111222 
DISL,ioos:station:DISL:KATA:1,2019-09-10T12:30:00Z,30.2583,-88.2131,4.481,4.38,11111222 
DISL,ioos:station:DISL:KATA:1,2019-09-10T13:30:00Z,30.2583,-88.2131,4.448,4.37,11111222 
DISL,ioos:station:DISL:KATA:1,2019-09-10T14:30:00Z,30.2583,-88.2131,4.383,3.18,11111222 
DISL,ioos:station:DISL:KATA:1,2019-09-10T15:30:00Z,30.2583,-88.2131,4.323,4.17,11111222 
DISL,ioos:station:DISL:KATA:1,2019-09-10T16:30:00Z,30.2583,-88.2131,4.283,4.82,11111222 
DISL,ioos:station:DISL:KATA:1,2019-09-10T17:30:00Z,30.2583,-88.2131,4.228,4.36,11111222 
DISL,ioos:station:DISL:KATA:1,2019-09-10T18:30:00Z,30.2583,-88.2131,4.155,5.16,11111222 
DISL,ioos:station:DISL:KATA:1,2019-09-10T19:30:00Z,30.2583,-88.2131,4.073,5.7,11111222 
DISL,ioos:station:DISL:KATA:1,2019-09-10T20:30:00Z,30.2583,-88.2131,3.995,5.7,11111222 
DISL,ioos:station:DISL:KATA:1,2019-09-10T21:30:00Z,30.2583,-88.2131,3.935,6.4,11111222 
DISL,ioos:station:DISL:KATA:1,2019-09-10T22:30:00Z,30.2583,-88.2131,3.913,6.41,11111222 
DISL,ioos:station:DISL:KATA:1,2019-09-10T23:30:00Z,30.2583,-88.2131,3.927,6.56,11111222 
DISL,ioos:station:DISL:KATA:1,2019-09-11T00:30:00Z,30.2583,-88.2131,3.972,5.49,11111222 
DISL,ioos:station:DISL:KATA:1,2019-09-11T01:30:00Z,30.2583,-88.2131,4.014,6.31,11111222 
DISL,ioos:station:DISL:KATA:1,2019-09-11T02:30:00Z,30.2583,-88.2131,4.04,3.87,11111222 
DISL,ioos:station:DISL:KATA:1,2019-09-11T03:30:00Z,30.2583,-88.2131,4.063,4.3,11111222 
DISL,ioos:station:DISL:KATA:1,2019-09-11T04:30:00Z,30.2583,-88.2131,4.113,4.42,11111222 
DISL,ioos:station:DISL:KATA:1,2019-09-11T05:30:00Z,30.2583,-88.2131,4.169,4.89,11111222 
DISL,ioos:station:DISL:KATA:1,2019-09-11T06:30:00Z,30.2583,-88.2131,4.208,4.86,11111222 
DISL,ioos:station:DISL:KATA:1,2019-09-11T07:30:00Z,30.2583,-88.2131,4.232,4.52,11111222 
DISL,ioos:station:DISL:KATA:1,2019-09-11T08:30:00Z,30.2583,-88.2131,4.244,4.46,11111222 
DISL,ioos:station:DISL:KATA:1,2019-09-11T09:30:00Z,30.2583,-88.2131,4.261,4.63,11111222 
DISL,ioos:station:DISL:KATA:1,2019-09-11T10:30:00Z,30.2583,-88.2131,4.315,5.0,11111222 
DISL,ioos:station:DISL:KATA:1,2019-09-11T11:30:00Z,30.2583,-88.2131,4.377,4.84,11111222 
DISL,ioos:station:DISL:KATA:1,2019-09-11T12:30:00Z,30.2583,-88.2131,4.423,4.81,11111222 
DISL,ioos:station:DISL:KATA:1,2019-09-11T13:30:00Z,30.2583,-88.2131,4.423,4.56,11111222 
DISL,ioos:station:DISL:KATA:1,2019-09-11T14:30:00Z,30.2583,-88.2131,4.397,4.55,11111222 
DISL,ioos:station:DISL:KATA:1,2019-09-11T15:30:00Z,30.2583,-88.2131,4.35,4.3,11111222 
DISL,ioos:station:DISL:KATA:1,2019-09-11T16:30:00Z,30.2583,-88.2131,4.309,3.5,11111222 
DISL,ioos:station:DISL:KATA:1,2019-09-11T17:30:00Z,30.2583,-88.2131,4.251,4.32,11111222 
DISL,ioos:station:DISL:KATA:1,2019-09-11T18:30:00Z,30.2583,-88.2131,4.199,4.28,11111222 
DISL,ioos:station:DISL:KATA:1,2019-09-11T19:30:00Z,30.2583,-88.2131,4.133,3.88,11111222 
DISL,ioos:station:DISL:KATA:1,2019-09-11T20:30:00Z,30.2583,-88.2131,4.061,3.62,11111222 
DISL,ioos:station:DISL:KATA:1,2019-09-11T21:30:00Z,30.2583,-88.2131,4.006,3.59,11111222 
DISL,ioos:station:DISL:KATA:1,2019-09-11T22:30:00Z,30.2583,-88.2131,3.994,3.16,11111222 
DISL,ioos:station:DISL:KATA:1,2019-09-11T23:30:00Z,30.2583,-88.2131,4.017,2.82,11111222 
DISL,ioos:station:DISL:KATA:1,2019-09-12T00:30:00Z,30.2583,-88.2131,4.057,2.99,11111222 
DISL,ioos:station:DISL:KATA:1,2019-09-12T01:30:00Z,30.2583,-88.2131,4.096,3.67,11111222 
DISL,ioos:station:DISL:KATA:1,2019-09-12T02:30:00Z,30.2583,-88.2131,4.114,3.99,11111222 
DISL,ioos:station:DISL:KATA:1,2019-09-12T03:30:00Z,30.2583,-88.2131,4.138,3.71,11111222 
DISL,ioos:station:DISL:KATA:1,2019-09-12T04:30:00Z,30.2583,-88.2131,4.171,3.91,11111222 
DISL,ioos:station:DISL:KATA:1,2019-09-12T05:30:00Z,30.2583,-88.2131,4.2,4.46,11111222 
DISL,ioos:station:DISL:KATA:1,2019-09-12T06:30:00Z,30.2583,-88.2131,4.223,4.75,11111222 
DISL,ioos:station:DISL:KATA:1,2019-09-12T07:30:00Z,30.2583,-88.2131,4.233,4.95,11111222 
DISL,ioos:station:DISL:KATA:1,2019-09-12T08:30:00Z,30.2583,-88.2131,4.258,5.1,11111222 
DISL,ioos:station:DISL:KATA:1,2019-09-12T09:30:00Z,30.2583,-88.2131,4.259,5.27,11111222 
DISL,ioos:station:DISL:KATA:1,2019-09-12T10:30:00Z,30.2583,-88.2131,4.264,5.81,11111222 
DISL,ioos:station:DISL:KATA:1,2019-09-12T11:30:00Z,30.2583,-88.2131,4.327,5.51,11111222 